Starlink 31546

operational
NORAD ID: 59470 Int'l Des: 2024-068 Owner: SPXS Country: US Constellation: starlink
LEOCIRCULAR

About Starlink 31546

Description loading...

Live Position

Loading 3D Globe...

Upcoming Passes

Altitude History

Altitude vs Time

uPlot chart will show altitude changes over time

Two-Line Element Set

1 59470U 24068R 25258.18679345 .00000734 00000-0 36181-4 0 9997
2 59470 43.0037 302.0532 0001137 259.2289 100.8435 15.27579890 81720
Epoch: Sep 15, 2025 • Age: 22 hours

Current Status

Altitude 484.2 km
Velocity 7.63 km/s
Sub-Earth Point 30.00°N, 60.33°W
Launch Date Apr 10, 2024
Age 1.4 years
Type internet

Technical Details

Classification Payload
Mass 730.00 kg
Dry Mass 700.00 kg
Total Mass 730.00 kg
Length 0.30 m
Diameter 4.10 m
Span 29.00 m
Shape Box + pan
Manufacturer SPXS
Bus Type Starlink V2M
Phase Status In Orbit
Owner/State SPXS/US

Large Constellations

Loading constellations...